| time (UTC) | temp F | wind direction | speed MPH | gust MPH | rain 1hr in | rain 24hr in | rain mn in | humidity % | barometer mb |
| 20260504185136 | 65 | 306 | 5.0 | 6.0 | 0.00 | 0.00 | 0.00 | 61 | 1013.9 |
| 20260504184632 | 66 | 289 | 3.0 | 3.0 | 0.00 | 0.00 | 0.00 | 57 | 1014.1 |
| 20260504184127 | 67 | 259 | 1.0 | 1.0 | 0.00 | 0.00 | 0.00 | 57 | 1014.1 |
| 20260504183624 | 67 | 261 | 1.0 | 1.0 | 0.00 | 0.00 | 0.00 | 58 | 1014.2 |
| 20260504183122 | 67 | 235 | 3.0 | 3.0 | 0.00 | 0.00 | 0.00 | 55 | 1014.2 |
| 20260504182619 | 67 | 247 | 2.0 | 5.0 | 0.00 | 0.00 | 0.00 | 57 | 1014.2 |
| 20260504182117 | 66 | 277 | 1.0 | 2.0 | 0.00 | 0.00 | 0.00 | 56 | 1014.3 |
| 20260504181614 | 65 | 295 | 2.0 | 2.0 | 0.00 | 0.00 | 0.00 | 59 | 1014.2 |
| 20260504181111 | 67 | 282 | 3.0 | 3.0 | 0.00 | 0.00 | 0.00 | 53 | 1014.4 |
| 20260504180610 | 68 | 243 | 1.0 | 1.0 | 0.00 | 0.00 | 0.00 | 52 | 1014.3 |
| 20260504180109 | 69 | 252 | 1.0 | 1.0 | 0.00 | 0.00 | 0.00 | 50 | 1014.3 |
| 20260504175606 | 69 | 257 | 1.0 | 2.0 | 0.00 | 0.00 | 0.00 | 52 | 1014.3 |
| 20260504175102 | 67 | 259 | 0.0 | 1.0 | 0.00 | 0.00 | 0.00 | 52 | 1014.5 |
| 20260504174600 | 66 | 286 | 1.0 | 1.0 | 0.00 | 0.00 | 0.00 | 57 | 1014.2 |
| 20260504174057 | 66 | 200 | 1.0 | 1.0 | 0.00 | 0.00 | 0.00 | 56 | 1014.4 |
| 20260504173553 | 65 | 212 | 3.0 | 3.0 | 0.00 | 0.00 | 0.00 | 57 | 1014.3 |
| 20260504173051 | 66 | 223 | 0.0 | 0.0 | 0.00 | 0.00 | 0.00 | 56 | 1014.4 |
| 20260504172547 | 66 | 258 | 2.0 | 2.0 | 0.00 | 0.00 | 0.00 | 55 | 1014.2 |
| 20260504172044 | 66 | 296 | 1.0 | 1.0 | 0.00 | 0.00 | 0.00 | 57 | 1014.2 |
| 20260504171541 | 64 | 310 | 1.0 | 1.0 | 0.00 | 0.00 | 0.00 | 60 | 1014.3 |
| 20260504171038 | 63 | 3 | 2.0 | 3.0 | 0.00 | 0.00 | 0.00 | 61 | 1014.1 |
| 20260504170533 | 63 | 303 | 1.0 | 1.0 | 0.00 | 0.00 | 0.00 | 60 | 1014.3 |
| 20260504150917 | 58 | 172 | 1.0 | 1.0 | 0.00 | 0.00 | 0.00 | 74 | 1014.2 |
| 20260504150414 | 57 | 171 | 2.0 | 2.0 | 0.00 | 0.00 | 0.00 | 75 | 1014.1 |
| 20260504140841 | 51 | 154 | 4.0 | 5.0 | 0.00 | 0.00 | 0.00 | 84 | 1013.7 |
| 20260504140336 | 50 | 180 | 2.0 | 3.0 | 0.00 | 0.00 | 0.00 | 86 | 1013.6 |
| 20260504130805 | 49 | 182 | 1.0 | 1.0 | 0.00 | 0.00 | 0.00 | 89 | 1013.4 |
| 20260504130301 | 49 | 186 | 1.0 | 1.0 | 0.00 | 0.00 | 0.00 | 89 | 1013.4 |
| 20260504120225 | 50 | 183 | 1.0 | 2.0 | 0.00 | 0.00 | 0.00 | 88 | 1013.3 |
| 20260504110652 | 51 | 190 | 0.0 | 1.0 | 0.00 | 0.00 | 0.00 | 86 | 1013.7 |
| 20260504110149 | 51 | 157 | 2.0 | 2.0 | 0.00 | 0.00 | 0.00 | 86 | 1013.7 |
| 20260504100615 | 49 | 200 | 0.0 | 0.0 | 0.00 | 0.00 | 0.00 | 93 | 1013.8 |
| 20260504100113 | 49 | 197 | 0.0 | 1.0 | 0.00 | 0.00 | 0.00 | 93 | 1013.8 |
| 20260504081506 | 50 | 200 | 0.0 | 0.0 | 0.00 | 0.00 | 0.00 | 92 | 1014.8 |
| 20260504081001 | 50 | 188 | 0.0 | 0.0 | 0.00 | 0.00 | 0.00 | 91 | 1014.5 |
| 20260504080458 | 50 | 179 | 1.0 | 1.0 | 0.00 | 0.00 | 0.00 | 92 | 1014.6 |
| 20260504050305 | 53 | 200 | 0.0 | 0.0 | 0.00 | 0.00 | 0.00 | 90 | 1014.8 |
| 20260504045803 | 53 | 201 | 0.0 | 0.0 | 0.00 | 0.00 | 0.00 | 91 | 1014.5 |
| 20260504045304 | 53 | 200 | 0.0 | 0.0 | 0.00 | 0.00 | 0.00 | 90 | 1014.5 |
| 20260504044800 | 53 | 200 | 0.0 | 0.0 | 0.00 | 0.00 | 0.00 | 90 | 1014.5 |
| 20260504044257 | 53 | 200 | 0.0 | 0.0 | 0.00 | 0.00 | 0.00 | 89 | 1014.5 |
| 20260504043754 | 53 | 200 | 0.0 | 0.0 | 0.00 | 0.00 | 0.00 | 89 | 1014.6 |
| 20260504043251 | 53 | 200 | 0.0 | 0.0 | 0.00 | 0.00 | 0.00 | 88 | 1014.7 |
| 20260504042749 | 54 | 201 | 0.0 | 0.0 | 0.00 | 0.00 | 0.00 | 87 | 1014.5 |
| 20260504042245 | 54 | 223 | 0.0 | 1.0 | 0.00 | 0.00 | 0.00 | 87 | 1014.4 |
| 20260504041741 | 54 | 210 | 1.0 | 1.0 | 0.00 | 0.00 | 0.00 | 87 | 1014.2 |
| 20260504041237 | 54 | 201 | 1.0 | 2.0 | 0.00 | 0.00 | 0.00 | 87 | 1013.9 |
| 20260504040733 | 54 | 208 | 0.0 | 1.0 | 0.00 | 0.00 | 0.00 | 86 | 1014.0 |
| 20260504040231 | 55 | 205 | 0.0 | 0.0 | 0.00 | 0.00 | 0.00 | 86 | 1014.3 |
| 20260504035727 | 55 | 204 | 0.0 | 1.0 | 0.00 | 0.00 | 0.00 | 86 | 1014.1 |
| 20260504035225 | 55 | 205 | 1.0 | 1.0 | 0.00 | 0.00 | 0.00 | 85 | 1013.7 |
| 20260504034722 | 55 | 207 | 1.0 | 1.0 | 0.00 | 0.00 | 0.00 | 85 | 1013.8 |
| 20260504034219 | 55 | 215 | 1.0 | 1.0 | 0.00 | 0.00 | 0.00 | 84 | 1013.5 |
| 20260504033717 | 56 | 232 | 1.0 | 2.0 | 0.00 | 0.00 | 0.00 | 84 | 1013.6 |
| 20260504033214 | 56 | 213 | 1.0 | 2.0 | 0.00 | 0.00 | 0.00 | 83 | 1013.9 |
| 20260504032711 | 56 | 200 | 1.0 | 1.0 | 0.00 | 0.00 | 0.00 | 83 | 1013.7 |
| 20260504032208 | 56 | 203 | 1.0 | 1.0 | 0.00 | 0.00 | 0.00 | 82 | 1013.4 |
| 20260504031705 | 56 | 208 | 1.0 | 1.0 | 0.00 | 0.00 | 0.00 | 82 | 1013.6 |
| 20260504031201 | 56 | 288 | 3.0 | 3.0 | 0.00 | 0.00 | 0.00 | 81 | 1013.8 |
| 20260504030657 | 57 | 240 | 1.0 | 1.0 | 0.00 | 0.00 | 0.00 | 81 | 1013.6 |
| 20260504030155 | 57 | 220 | 1.0 | 1.0 | 0.00 | 0.00 | 0.00 | 81 | 1013.6 |
| 20260504025651 | 57 | 231 | 2.0 | 2.0 | 0.00 | 0.00 | 0.00 | 80 | 1013.3 |
| 20260504025148 | 57 | 231 | 1.0 | 2.0 | 0.00 | 0.00 | 0.00 | 80 | 1013.3 |
| 20260504024646 | 57 | 271 | 2.0 | 3.0 | 0.00 | 0.00 | 0.00 | 79 | 1013.3 |
| 20260504024142 | 57 | 306 | 2.0 | 3.0 | 0.00 | 0.00 | 0.00 | 78 | 1013.1 |
| 20260504023639 | 57 | 226 | 3.0 | 3.0 | 0.00 | 0.00 | 0.00 | 78 | 1013.3 |
| 20260504023135 | 58 | 306 | 5.0 | 6.0 | 0.00 | 0.00 | 0.00 | 77 | 1013.3 |
| 20260504022631 | 58 | 266 | 3.0 | 5.0 | 0.00 | 0.00 | 0.00 | 76 | 1013.3 |
| 20260504022127 | 58 | 294 | 4.0 | 5.0 | 0.00 | 0.00 | 0.00 | 75 | 1013.3 |
| 20260504021625 | 59 | 212 | 1.0 | 1.0 | 0.00 | 0.00 | 0.00 | 74 | 1013.1 |
| 20260504021121 | 58 | 278 | 4.0 | 6.0 | 0.00 | 0.00 | 0.00 | 74 | 1013.3 |
| 20260504020619 | 58 | 300 | 3.0 | 5.0 | 0.00 | 0.00 | 0.00 | 74 | 1012.8 |
| 20260504020115 | 59 | 312 | 4.0 | 7.0 | 0.00 | 0.00 | 0.00 | 73 | 1012.9 |
| 20260504015611 | 59 | 301 | 4.0 | 6.0 | 0.00 | 0.00 | 0.00 | 71 | 1012.9 |
| 20260504015107 | 59 | 245 | 1.0 | 2.0 | 0.00 | 0.00 | 0.00 | 71 | 1012.9 |
| 20260504014603 | 60 | 272 | 3.0 | 3.0 | 0.00 | 0.00 | 0.00 | 70 | 1013.0 |
| 20260504014101 | 60 | 316 | 3.0 | 5.0 | 0.00 | 0.00 | 0.00 | 69 | 1012.9 |
| 20260504013558 | 61 | 346 | 5.0 | 7.0 | 0.00 | 0.00 | 0.00 | 66 | 1012.8 |
| 20260504013055 | 60 | 328 | 5.0 | 6.0 | 0.00 | 0.00 | 0.00 | 66 | 1012.5 |
| 20260504012552 | 60 | 276 | 2.0 | 3.0 | 0.00 | 0.00 | 0.00 | 66 | 1012.4 |
| 20260504012050 | 60 | 253 | 2.0 | 2.0 | 0.00 | 0.00 | 0.00 | 66 | 1012.7 |
| 20260504011547 | 60 | 247 | 4.0 | 6.0 | 0.00 | 0.00 | 0.00 | 66 | 1012.7 |
| 20260504011043 | 61 | 251 | 3.0 | 5.0 | 0.00 | 0.00 | 0.00 | 66 | 1012.7 |
| 20260504010539 | 61 | 262 | 4.0 | 5.0 | 0.00 | 0.00 | 0.00 | 65 | 1012.6 |
| 20260504010035 | 61 | 273 | 3.0 | 3.0 | 0.00 | 0.00 | 0.00 | 65 | 1012.8 |
| 20260504005532 | 61 | 296 | 3.0 | 3.0 | 0.00 | 0.00 | 0.00 | 64 | 1012.7 |
| 20260504005029 | 61 | 264 | 5.0 | 9.0 | 0.00 | 0.00 | 0.00 | 64 | 1012.6 |
| 20260504004527 | 61 | 255 | 2.0 | 3.0 | 0.00 | 0.00 | 0.00 | 65 | 1012.6 |
| 20260504004024 | 61 | 254 | 2.0 | 2.0 | 0.00 | 0.00 | 0.00 | 64 | 1012.4 |
| 20260504003520 | 61 | 338 | 4.0 | 6.0 | 0.00 | 0.00 | 0.00 | 64 | 1012.7 |
| 20260504003017 | 61 | 261 | 5.0 | 6.0 | 0.00 | 0.00 | 0.00 | 64 | 1012.5 |
| 20260504002514 | 61 | 289 | 5.0 | 7.0 | 0.00 | 0.00 | 0.00 | 64 | 1012.4 |
| 20260504002011 | 62 | 265 | 5.0 | 7.0 | 0.00 | 0.00 | 0.00 | 64 | 1012.6 |
| 20260504001509 | 62 | 267 | 3.0 | 3.0 | 0.00 | 0.00 | 0.00 | 62 | 1012.6 |
| 20260504001005 | 64 | 206 | 1.0 | 1.0 | 0.00 | 0.00 | 0.00 | 61 | 1012.6 |
| 20260504000502 | 64 | 327 | 4.0 | 6.0 | 0.00 | 0.00 | 0.00 | 58 | 1012.4 |
| 20260503235959 | 64 | 321 | 4.0 | 5.0 | 0.00 | 0.00 | 0.00 | 58 | 1012.3 |
| 20260503235457 | 64 | 226 | 3.0 | 5.0 | 0.00 | 0.00 | 0.00 | 57 | 1012.3 |
| 20260503234954 | 64 | 295 | 6.0 | 7.0 | 0.00 | 0.00 | 0.00 | 56 | 1012.2 |
| 20260503234452 | 64 | 6 | 7.0 | 9.0 | 0.00 | 0.00 | 0.00 | 58 | 1012.4 |
| 20260503233950 | 64 | 295 | 6.0 | 8.0 | 0.00 | 0.00 | 0.00 | 57 | 1012.1 |
| 20260503233446 | 64 | 338 | 4.0 | 6.0 | 0.00 | 0.00 | 0.00 | 57 | 1012.1 |
| 20260503232942 | 64 | 315 | 7.0 | 9.0 | 0.00 | 0.00 | 0.00 | 56 | 1012.1 |
| 20260503232439 | 64 | 204 | 2.0 | 3.0 | 0.00 | 0.00 | 0.00 | 57 | 1012.0 |
| 20260503231937 | 64 | 292 | 5.0 | 6.0 | 0.00 | 0.00 | 0.00 | 58 | 1011.9 |
| 20260503231434 | 64 | 273 | 4.0 | 7.0 | 0.00 | 0.00 | 0.00 | 56 | 1012.2 |
| 20260503230931 | 64 | 302 | 4.0 | 6.0 | 0.00 | 0.00 | 0.00 | 57 | 1012.1 |
| 20260503230427 | 64 | 269 | 4.0 | 6.0 | 0.00 | 0.00 | 0.00 | 57 | 1012.1 |
| 20260503225925 | 64 | 304 | 7.0 | 9.0 | 0.00 | 0.00 | 0.00 | 56 | 1012.2 |
| 20260503225422 | 64 | 281 | 3.0 | 3.0 | 0.00 | 0.00 | 0.00 | 57 | 1012.3 |
| 20260503224917 | 65 | 292 | 3.0 | 6.0 | 0.00 | 0.00 | 0.00 | 55 | 1012.3 |
| 20260503224414 | 64 | 268 | 3.0 | 3.0 | 0.00 | 0.00 | 0.00 | 57 | 1012.1 |
| 20260503223912 | 65 | 241 | 2.0 | 3.0 | 0.00 | 0.00 | 0.00 | 56 | 1012.4 |
| 20260503223410 | 67 | 276 | 2.0 | 3.0 | 0.00 | 0.00 | 0.00 | 54 | 1012.3 |
| 20260503222910 | 68 | 213 | 0.0 | 1.0 | 0.00 | 0.00 | 0.00 | 51 | 1012.4 |
| 20260503222409 | 68 | 230 | 3.0 | 3.0 | 0.00 | 0.00 | 0.00 | 55 | 1012.5 |
| 20260503221907 | 69 | 315 | 4.0 | 6.0 | 0.00 | 0.00 | 0.00 | 53 | 1012.3 |
| 20260503221405 | 65 | 243 | 5.0 | 9.0 | 0.00 | 0.00 | 0.00 | 57 | 1012.5 |
| 20260503220901 | 66 | 304 | 6.0 | 7.0 | 0.00 | 0.00 | 0.00 | 56 | 1012.8 |
| 20260503220358 | 66 | 221 | 2.0 | 2.0 | 0.00 | 0.00 | 0.00 | 57 | 1012.6 |
| 20260503215855 | 66 | 263 | 3.0 | 5.0 | 0.00 | 0.00 | 0.00 | 56 | 1012.5 |
| 20260503215352 | 65 | 224 | 1.0 | 2.0 | 0.00 | 0.00 | 0.00 | 59 | 1012.6 |
| 20260503214849 | 66 | 309 | 4.0 | 5.0 | 0.00 | 0.00 | 0.00 | 57 | 1012.6 |
| 20260503214347 | 65 | 308 | 2.0 | 2.0 | 0.00 | 0.00 | 0.00 | 60 | 1012.6 |
| 20260503213844 | 66 | 270 | 3.0 | 3.0 | 0.00 | 0.00 | 0.00 | 58 | 1012.4 |
| 20260503213341 | 66 | 244 | 4.0 | 5.0 | 0.00 | 0.00 | 0.00 | 58 | 1012.7 |
| 20260503212838 | 65 | 228 | 4.0 | 6.0 | 0.00 | 0.00 | 0.00 | 59 | 1012.4 |
| 20260503212336 | 65 | 309 | 4.0 | 5.0 | 0.00 | 0.00 | 0.00 | 59 | 1012.6 |
| 20260503211833 | 64 | 251 | 3.0 | 5.0 | 0.00 | 0.00 | 0.00 | 59 | 1012.4 |
| 20260503211330 | 64 | 237 | 2.0 | 2.0 | 0.00 | 0.00 | 0.00 | 60 | 1012.5 |
| 20260503210825 | 64 | 343 | 5.0 | 8.0 | 0.00 | 0.00 | 0.00 | 59 | 1012.5 |
| 20260503210322 | 65 | 272 | 5.0 | 7.0 | 0.00 | 0.00 | 0.00 | 60 | 1012.7 |
| 20260503205817 | 65 | 329 | 6.0 | 8.0 | 0.00 | 0.00 | 0.00 | 59 | 1012.5 |
| 20260503205314 | 66 | 269 | 3.0 | 3.0 | 0.00 | 0.00 | 0.00 | 57 | 1012.6 |
| 20260503204811 | 66 | 334 | 3.0 | 5.0 | 0.00 | 0.00 | 0.00 | 56 | 1012.7 |
| 20260503204308 | 67 | 202 | 1.0 | 2.0 | 0.00 | 0.00 | 0.00 | 56 | 1012.5 |
| 20260503203800 | 65 | 285 | 2.0 | 3.0 | 0.00 | 0.00 | 0.00 | 57 | 1012.7 |
| 20260503203257 | 65 | 35 | 2.0 | 2.0 | 0.00 | 0.00 | 0.00 | 56 | 1012.6 |
| 20260503202748 | 65 | 331 | 6.0 | 8.0 | 0.00 | 0.00 | 0.00 | 56 | 1012.7 |
| 20260503202246 | 66 | 219 | 1.0 | 1.0 | 0.00 | 0.00 | 0.00 | 55 | 1012.8 |
| 20260503201743 | 65 | 264 | 4.0 | 6.0 | 0.00 | 0.00 | 0.00 | 56 | 1012.8 |
| 20260503201241 | 65 | 254 | 3.0 | 5.0 | 0.00 | 0.00 | 0.00 | 56 | 1012.7 |
| 20260503200738 | 66 | 301 | 4.0 | 5.0 | 0.00 | 0.00 | 0.00 | 56 | 1012.8 |
| 20260503200234 | 67 | 316 | 4.0 | 6.0 | 0.00 | 0.00 | 0.00 | 55 | 1012.8 |
| 20260503195731 | 66 | 272 | 5.0 | 7.0 | 0.00 | 0.00 | 0.00 | 56 | 1012.7 |
| 20260503195228 | 66 | 255 | 1.0 | 2.0 | 0.00 | 0.00 | 0.00 | 58 | 1013.0 |
| 20260503194725 | 66 | 254 | 1.0 | 1.0 | 0.00 | 0.00 | 0.00 | 58 | 1013.0 |
| 20260503194221 | 65 | 258 | 1.0 | 1.0 | 0.00 | 0.00 | 0.00 | 61 | 1013.0 |
| 20260503193717 | 66 | 269 | 3.0 | 3.0 | 0.00 | 0.00 | 0.00 | 60 | 1012.9 |
| 20260503190903 | 64 | 255 | 1.0 | 1.0 | 0.00 | 0.00 | 0.00 | 65 | 1013.5 |
| 20260503190401 | 64 | 255 | 1.0 | 1.0 | 0.00 | 0.00 | 0.00 | 65 | 1013.5 |
| 20260503185857 | 64 | 258 | 1.0 | 1.0 | 0.00 | 0.00 | 0.00 | 65 | 1013.5 |